User: anonymous   Login
Location: Fort Wayne
(41.1310°N, 85.1290°W)
Time: 15:55:34
(UTC-04:00)
Language:

COSMOS 2406 - Orbit

View from above orbital plane
View from above orbital plane
View from above satellite
View from above satellite

Ground track
Ground track

The orbit data is extracted from the following two-line orbital elements,

1 28352U 04021A   15146.57258856  .00000337  00000-0  21197-3 0  9996
2 28352 071.0039 255.8415 0013259 167.3392 276.9577 14.11410841564657
Epoch (UTC): 26 May 2015 13:44:31
Eccentricity: 0.0013259
inclination: 71.0039°
perigee height: 845 km
apogee height: 864 km
right ascension of ascending node: 255.8415°
argument of perigee: 167.3392°
revolutions per day: 14.11410841
mean anomaly at epoch: 276.9577°
orbit number at epoch: 56465

The dashed part of the orbit path shows where the satellite is in the earth's shadow,  

DLR